Showing default

METEOR M2, 40069

Orbit data source: Space-Track

METEOR M2, 40069 is a Commonwealth of Independent States-origin payload satellite in SSO that was launched on Tue, 08 Jul 2014 UTC via a SOYUZ-2-1B launch vehicle from the Tyuratam Missile And Space Complex (TTMTR). Payload-class satellites include a variety of spacecraft equipped with specific instruments for various scientific and technological missions. These include communications satellites like Starlink; space stations such as the ISS; scientific satellites like the Hubble; Earth observation satellites from companies like Planet Labs, Umbra, and HawkEye 360; GPS; miniature CubeSats for education and research; and military/defense satellites.

Loading next visibility...
Identifier
40069, 2014-037A
Orbit
SSO
Last TLE update
7 hours ago
Origin
Manufacturer
VNIIEM
Mission
Partially operational Civil Weather
Bus & Motor
RESURS-O, Unknown motor
Mass
2,879 kg wet, ~2,600 kg dry
Launch date (UTC)
2014-07-08 (11 years ago)
Launch vehicle
SOYUZ-2-1B
Launch site
Tyuratam Missile And Space Complex (TTMTR)
Object type
Payload
Rocket body
Debris
Shape & HBR
Cyl + 2 Pan, 14 m
Radar Cross Section
26.744 m², Large (>1 m²)

Expand to show TLE details & history

TLE from 7 hours ago
0 METEOR M2
1 40069U 14037A   25182.93656583  .00000087  00000-0  59068-4 0  9994
2 40069  98.4685 166.9755 0005396 347.0689  13.0350 14.21305080569567
Epoch: 2025-07-01T22:28Z
TLE epoch observation values (Epoch: 2025-07-01T22:28:39.287Z)
Latitude
-0.00001°
Longitude
-90.41306°
Altitude
820.081 km
Speed
7.445 km/s
True Right ascension
11h 07m 54s
True Declination
0° 00' 00"
Sunlit
Object was in daylight at epoch
Visualization orbit readout
Latitude
19.63601°
Longitude
-93.16829°
Altitude
820.187 km
Speed
7.446 km/s
Apparent Right ascension
08h 35m 01s
Apparent Declination
-11° 09' 38"
Sunlit
Object is in daylight
Visualization observer readout
Local Sidereal Time
17:01:15
Azimuth
286.036° WNW
Elevation
-34.918°
Doppler factor
1
Orbital elements
Apogee altitude
821.971 km
Perigee altitude
814.205 km
Semi-major axis
7,196.225 km
Eccentricity
0.00054
Inclination
98.4685°
RAAN
166.9755°
Arg. of periapsis
347.0689°
True anomaly
Unknown
Mean anomaly
13.035°
Eccentric anomaly
Unknown
Mean motion
3.55538 °/min
Orbital period
101.25 mins
BSTAR
0.000059068
Loading maneuver chart data...
Loading SW <> Apogee altitude chart data...
Loading historical data...
Loading historical data...
Loading historical data...
Loading historical data...
Loading historical data...
Loading historical data...
Loading historical data...

METEOR M2 Visibility forecast

Observer location: undefined°, undefined°

Span
Click to sort rows by Start time (UTC) header in descending order
Start Az.
Max El. time (UTC)
Max El. Az.
Max El.
End time (UTC)
End Az.
8 mins2025-07-02 10:53:41.998Z38.944° NE2025-07-02 10:57:41.998Z88.503° E24°2025-07-02 11:01:41.998Z145.881° SSE
8 mins2025-07-02 12:34:41.998Z349.051° N2025-07-02 12:38:41.998Z278.318° WNW30.933°2025-07-02 12:42:41.998Z226.76° WSW
8 mins2025-07-02 22:16:41.998Z127.026° SE2025-07-02 22:19:41.998Z73.701° E32.688°2025-07-02 22:24:41.998Z2.274° NNE
6 mins2025-07-02 23:57:41.998Z229.035° WSW2025-07-02 23:59:41.998Z259.199° W22.541°2025-07-03 00:03:41.998Z314.827° NW
|